MUOS-5

Last updated on Tue Sep 22 2026 00:03:14 GMT+0000 (Coordinated Universal Time)

1 41622U 16041A 26264.48708775 -.00000146 00000+0 00000+0 0 9993 2 41622 2.0079 303.8560 0204082 260.8126 226.0833 1.00272048 38055
UTC large
Height (km)
Speed (km/s)
/
Latitude / Longitude
Inclination (degrees)
Orbital Period (minutes)
Azimuth
Elevation
Range (km)
Doppler Factor

Next 0 passes for location: London (51.5072 / 0.1276)

No passes found over London.
MUOS-5